[[{"header":{"parameterUnit":"m.s-1","parameterCategory":1,"la1":30.2991,"la2":30.254,"lo1":-89.0895,"lo2":-89.0444,"dy":0.0017,"dx":0.0017,"nx":28,"ny":28,"refTime":"2024-03-24T03:00:00:Z","depth":0,"parameterNumber":2,"parameterNumberName":"U-component_of_WINDS"},"data":[0,0,0,0,0,0,0,0,0,0,0,0,0,0,0,0,0,0,0,0,0,0,0,0,0,0,0,0,0,0,0,0,0,0,0,0,0,0,0,0,0,0,0,0,0,0,0,0,0,0,0,0,0,0,0,0,0,0,0.8928,0.8929,0,0.8981,0.8982,0.8983,0.9009,0.9009,0.9009,0.9009,0.9065,0.9066,0.9068,0,0,0,0,0,0,0,0,0,0,0,0,0,0.8852,0.8853,0.8928,0.8929,0.8929,0.8981,0.8982,0.8983,0.9009,0.9009,0.9009,0.9009,0.9064,0.9066,0.9068,0,0,0,0,0,0,0,0,0,0,0,0,0,0.8893,0.8854,0.8928,0.8949,0.8951,0.8981,0.8982,0.8983,0.9009,0.9009,0.9009,0.9009,0.9064,0.9066,0.9068,0.9082,0,0,0.9075,0.9076,0,0,0,0,0,0,0,0,0.8891,0.8896,0.8945,0.8947,0.895,0.8988,0.8976,0.9016,0.9009,0.8987,0.9009,0.9009,0.9039,0.9044,0.9054,0.9085,0.9087,0.9075,0.9076,0.9077,0.9078,0,0,0,0,0,0,0,0.8888,0.8894,0.8949,0.8946,0.8949,0.8956,0.8962,0.8984,0.9013,0.8989,0.8991,0.8997,0.9041,0.9051,0.9055,0.9088,0.9075,0.9077,0.9078,0.9079,0.9137,0.9137,0,0,0,0,0,0,0.8881,0.8891,0.8947,0.8951,0.892,0.8958,0.8964,0.8976,0.9012,0.9018,0.8997,0.8998,0.9048,0.9053,0.9057,0.9078,0.9077,0.908,0.9081,0.9137,0.9137,0.9137,0,0,0,0,0,0,0.888,0.8886,0.8945,0.8922,0.893,0.8959,0.8972,0.8977,0.8988,0.9018,0.9024,0.9002,0.9048,0.9054,0.9076,0.908,0.9081,0.9083,0.9137,0.9137,0.9137,0.9119,0,0,0,0,0,0,0.8877,0.8885,0.889,0.8922,0.8931,0.8962,0.8972,0.8978,0.8991,0.8993,0.9025,0.903,0.9048,0.9073,0.9079,0.9084,0.9084,0.9136,0.9137,0.9137,0.9119,0.9118,0.9118,0,0,0,0,0,0.8875,0.8882,0.889,0.8897,0.8937,0.8962,0.8968,0.8988,0.8992,0.8997,0.9018,0.9029,0.9079,0.9075,0.9082,0.9087,0.9136,0.9137,0.9137,0.9119,0.9118,0.9118,0,0,0,0,0,0,0.885,0.8887,0.8896,0.8913,0.8935,0.8967,0.8974,0.8986,0.9007,0.9008,0.9033,0.904,0.9061,0.9076,0.9071,0.9105,0.9109,0.9111,0.9093,0.9093,0.9092,0.9088,0.9086,0,0,0,0,0,0.8847,0.8863,0.8895,0.8908,0.8918,0.8944,0.8956,0.897,0.8993,0.9003,0.9024,0.9047,0.9068,0.9081,0.9102,0.9122,0.913,0.9129,0.9129,0.9128,0.9129,0.9143,0.9144,0.9139,0.9139,0.9139,0,0,0.884,0.8862,0.8871,0.8903,0.8921,0.894,0.8952,0.8969,0.8984,0.9005,0.9028,0.9045,0.9072,0.9094,0.9105,0.9108,0.9133,0.9128,0.9128,0.9129,0.9144,0.9144,0.9145,0.9139,0.9139,0.9139,0,0,0.8837,0.8855,0.8868,0.8887,0.8914,0.8932,0.8936,0.8967,0.8979,0.9002,0.902,0.9038,0.9073,0.9092,0.9107,0.9115,0.9127,0.9121,0.9117,0.9131,0.9131,0.9132,0.9136,0.9137,0.9122,0.9122,0.9122,0,0.8825,0.8852,0.8874,0.8891,0.8906,0.8928,0.8943,0.896,0.8993,0.9003,0.9006,0.9053,0.9073,0.9101,0.9103,0.9113,0.912,0.9117,0.9129,0.913,0.9131,0.9135,0.9137,0.9121,0.9122,0.9122,0.9122,0,0.8837,0.8855,0.8863,0.8895,0.8911,0.8927,0.8954,0.8967,0.8981,0.8999,0.9025,0.9049,0.9077,0.9085,0.9098,0.9116,0.9117,0.9124,0.9129,0.913,0.9135,0.9137,0.912,0.9121,0.9121,0.9121,0,0,0.8817,0.8863,0.8866,0.8882,0.8915,0.8931,0.895,0.8977,0.8989,0.9012,0.9029,0.906,0.9068,0.9085,0.9101,0.9113,0.912,0.9119,0.9121,0.912,0.9144,0.9138,0.914,0.9129,0.9129,0.913,0.9142,0,0.8819,0.8852,0.8875,0.89,0.8919,0.8941,0.8958,0.8981,0.9,0.902,0.904,0.9063,0.9071,0.9081,0.9094,0.9116,0.9126,0.9116,0.9147,0.9148,0.9139,0.9142,0.9135,0.9145,0.9144,0.9144,0.9144,0,0.8825,0.8849,0.8876,0.891,0.8919,0.8933,0.8961,0.8979,0.9008,0.9021,0.9041,0.9058,0.908,0.9084,0.9117,0.911,0.9125,0.9138,0.9139,0.9143,0.9146,0.9146,0.9149,0.915,0.9147,0.9147,0.9147,0,0.881,0.8848,0.887,0.8883,0.8922,0.8933,0.895,0.8978,0.8994,0.9019,0.903,0.9058,0.9073,0.9095,0.912,0.912,0.9151,0.9157,0.9164,0.9164,0.9169,0.9168,0.9174,0.9178,0.9178,0.9178,0.9177,0,0.881,0.8826,0.8864,0.8877,0.8897,0.8923,0.8942,0.8962,0.8987,0.9006,0.9028,0.9045,0.9077,0.9099,0.9119,0.9145,0.9151,0.9163,0.9169,0.9162,0.916,0.9171,0.9171,0.9178,0.9178,0.9178,0.9178,0,0.8795,0.8821,0.8847,0.8883,0.8893,0.8906,0.8938,0.8953,0.8974,0.8998,0.9005,0.9038,0.9066,0.9093,0.913,0.9144,0.9169,0.9176,0.9159,0.9162,0.9169,0.9168,0.9182,0.9187,0.9186,0.9186,0.9186,0,0.8794,0.8807,0.8845,0.886,0.8876,0.8899,0.8916,0.8943,0.896,0.8995,0.9007,0.9036,0.9061,0.9104,0.9132,0.9162,0.917,0.9173,0.9174,0.9168,0.9171,0.917,0.9173,0.9172,0.9172,0.9171,0.9171,0,0.8788,0.8801,0.8824,0.8853,0.8872,0.8896,0.8921,0.8931,0.8964,0.8983,0.9011,0.9031,0.907,0.9099,0.9133,0.9152,0.9168,0.9171,0.9175,0.9168,0.9158,0.9165,0.9158,0.917,0.917,0.9171,0.9171,0.9171,0.8781,0.8795,0.8824,0.885,0.8872,0.8895,0.8912,0.8936,0.896,0.8993,0.9009,0.9038,0.907,0.9116,0.9136,0.916,0.9164,0.9169,0.917,0.9171,0.917,0.9154,0.9166,0.9166,0.9167,0.9167,0.9167,0,0.8778,0.8799,0.8822,0.8857,0.8878,0.8891,0.892,0.8937,0.8962,0.899,0.9015,0.9049,0.9079,0.9111,0.9143,0.9157,0.9165,0.9164,0.9164,0.9168,0.9164,0.9158,0.9157,0.9157,0.9157,0.9157,0.9157,0.9157,0.8778,0.8803,0.882,0.8856,0.8878,0.8906,0.8922,0.8945,0.8967,0.9005,0.903,0.905,0.908,0.9115,0.9144,0.9153,0.9164,0.9161,0.9172,0.9168,0.9168,0.9169,0.9164,0.9164,0.9164,0.9175,0.9175,0.9175]},{"header":{"parameterUnit":"m.s-1","parameterCategory":1,"la1":30.2991,"la2":30.254,"lo1":-89.0895,"lo2":-89.0444,"dy":0.0017,"dx":0.0017,"nx":28,"ny":28,"refTime":"2024-03-24T03:00:00:Z","depth":0,"parameterNumber":3,"parameterNumberName":"V-component_of_WINDS"},"data":[0,0,0,0,0,0,0,0,0,0,0,0,0,0,0,0,0,0,0,0,0,0,0,0,0,0,0,0,0,0,0,0,0,0,0,0,0,0,0,0,0,0,0,0,0,0,0,0,0,0,0,0,0,0,0,0,0,0,-6.1793,-6.1793,0,-6.1827,-6.1827,-6.1828,-6.1838,-6.1838,-6.1838,-6.1838,-6.1868,-6.1869,-6.187,0,0,0,0,0,0,0,0,0,0,0,0,0,-6.1735,-6.1736,-6.1793,-6.1793,-6.1794,-6.1827,-6.1827,-6.1828,-6.1838,-6.1838,-6.1838,-6.1838,-6.1868,-6.1869,-6.187,0,0,0,0,0,0,0,0,0,0,0,0,0,-6.1764,-6.1737,-6.1793,-6.1803,-6.1805,-6.1827,-6.1827,-6.1828,-6.1838,-6.1838,-6.1838,-6.1838,-6.1867,-6.1869,-6.187,-6.1883,0,0,-6.1874,-6.1875,0,0,0,0,0,0,0,0,-6.1762,-6.1766,-6.1801,-6.1803,-6.1804,-6.1828,-6.1818,-6.1846,-6.1839,-6.1825,-6.1838,-6.1838,-6.1855,-6.1857,-6.1864,-6.1885,-6.1886,-6.1874,-6.1875,-6.1876,-6.1876,0,0,0,0,0,0,0,-6.176,-6.1764,-6.1806,-6.1802,-6.1804,-6.1806,-6.1809,-6.1823,-6.1841,-6.1827,-6.1827,-6.1832,-6.1855,-6.1862,-6.1865,-6.1886,-6.1874,-6.1876,-6.1877,-6.1877,-6.1922,-6.1922,0,0,0,0,0,0,-6.1757,-6.1763,-6.1805,-6.1807,-6.1782,-6.1807,-6.1811,-6.1821,-6.1841,-6.1844,-6.1832,-6.1832,-6.186,-6.1863,-6.1866,-6.1884,-6.1876,-6.1877,-6.1878,-6.1922,-6.1922,-6.1922,0,0,0,0,0,0,-6.1756,-6.1761,-6.1804,-6.1785,-6.1791,-6.1808,-6.1819,-6.1821,-6.1829,-6.1845,-6.1847,-6.1836,-6.186,-6.1864,-6.188,-6.1885,-6.1878,-6.1879,-6.1921,-6.1922,-6.1922,-6.1919,0,0,0,0,0,0,-6.1754,-6.176,-6.1765,-6.1786,-6.1792,-6.1818,-6.1819,-6.1822,-6.1832,-6.1832,-6.1849,-6.1852,-6.186,-6.1878,-6.1881,-6.1887,-6.188,-6.1921,-6.1922,-6.1922,-6.1919,-6.1919,-6.192,0,0,0,0,0,-6.1752,-6.1761,-6.1766,-6.1771,-6.1799,-6.1818,-6.1822,-6.1832,-6.1832,-6.1837,-6.1848,-6.1851,-6.1884,-6.1879,-6.1883,-6.1889,-6.1921,-6.1921,-6.1922,-6.1918,-6.1919,-6.192,0,0,0,0,0,0,-6.1739,-6.1764,-6.1769,-6.1785,-6.18,-6.182,-6.1827,-6.1833,-6.1846,-6.1846,-6.1857,-6.1861,-6.1876,-6.1884,-6.1878,-6.1904,-6.1902,-6.1904,-6.1898,-6.1899,-6.19,-6.1897,-6.1881,0,0,0,0,0,-6.1738,-6.1753,-6.1773,-6.1786,-6.1793,-6.1809,-6.1817,-6.1825,-6.184,-6.1845,-6.1857,-6.187,-6.1884,-6.1892,-6.1905,-6.192,-6.1925,-6.1927,-6.1927,-6.1928,-6.1929,-6.1939,-6.1941,-6.1925,-6.1925,-6.1925,0,0,-6.1736,-6.1752,-6.176,-6.1784,-6.1796,-6.181,-6.1814,-6.1828,-6.1838,-6.1847,-6.1863,-6.1873,-6.1888,-6.1905,-6.1912,-6.1912,-6.1935,-6.1929,-6.1929,-6.193,-6.194,-6.1942,-6.1943,-6.1926,-6.1926,-6.1925,0,0,-6.174,-6.1753,-6.1766,-6.178,-6.1799,-6.181,-6.1813,-6.1833,-6.1841,-6.1858,-6.1866,-6.1878,-6.19,-6.1912,-6.192,-6.1933,-6.1937,-6.1937,-6.194,-6.195,-6.1951,-6.1952,-6.1958,-6.1959,-6.1938,-6.1938,-6.1938,0,-6.1734,-6.1757,-6.1772,-6.1787,-6.1798,-6.1809,-6.1823,-6.1834,-6.1856,-6.1863,-6.1863,-6.1893,-6.1904,-6.1925,-6.1928,-6.1935,-6.1939,-6.1934,-6.195,-6.1951,-6.1953,-6.1958,-6.196,-6.1938,-6.1938,-6.1938,-6.1938,0,-6.175,-6.1766,-6.1774,-6.1798,-6.181,-6.1824,-6.1841,-6.1851,-6.1859,-6.187,-6.1888,-6.1903,-6.192,-6.1925,-6.1931,-6.1947,-6.1946,-6.1948,-6.1946,-6.1954,-6.1959,-6.1961,-6.1938,-6.1938,-6.1938,-6.1938,0,0,-6.1743,-6.1779,-6.1781,-6.1794,-6.1818,-6.183,-6.1845,-6.1865,-6.1874,-6.1889,-6.1902,-6.1923,-6.1926,-6.1936,-6.1944,-6.1953,-6.1963,-6.1954,-6.1954,-6.1955,-6.1983,-6.1981,-6.1983,-6.1967,-6.1967,-6.1968,-6.1982,0,-6.175,-6.178,-6.1795,-6.1818,-6.1833,-6.1847,-6.186,-6.1876,-6.1888,-6.1902,-6.1914,-6.1929,-6.1931,-6.1938,-6.1948,-6.196,-6.1969,-6.1959,-6.1978,-6.1979,-6.1974,-6.1986,-6.1983,-6.1996,-6.1984,-6.1984,-6.1984,0,-6.1761,-6.1781,-6.1805,-6.1831,-6.1838,-6.185,-6.187,-6.1884,-6.1903,-6.1911,-6.1925,-6.1933,-6.195,-6.1949,-6.1972,-6.1965,-6.1974,-6.1982,-6.1982,-6.1984,-6.1981,-6.1987,-6.2,-6.2001,-6.1987,-6.1987,-6.1987,0,-6.1755,-6.1786,-6.1806,-6.1816,-6.1846,-6.1854,-6.1867,-6.1886,-6.1898,-6.1915,-6.1923,-6.1942,-6.1952,-6.1966,-6.1979,-6.1977,-6.2002,-6.2001,-6.2008,-6.2008,-6.2012,-6.2011,-6.2025,-6.2018,-6.2018,-6.2018,-6.2018,0,-6.1761,-6.1775,-6.1804,-6.1816,-6.1833,-6.1852,-6.1868,-6.1881,-6.1899,-6.1914,-6.1926,-6.1939,-6.1956,-6.1972,-6.1982,-6.2001,-6.2005,-6.2011,-6.2014,-6.201,-6.2009,-6.2015,-6.2015,-6.2019,-6.2019,-6.2018,-6.2018,0,-6.1755,-6.1775,-6.1797,-6.1826,-6.1833,-6.1845,-6.1869,-6.1881,-6.1895,-6.1913,-6.1918,-6.1939,-6.1958,-6.1974,-6.1998,-6.2006,-6.2025,-6.2028,-6.2019,-6.202,-6.2027,-6.2026,-6.2045,-6.2049,-6.2039,-6.2039,-6.2039,0,-6.1757,-6.1769,-6.18,-6.1812,-6.1826,-6.1844,-6.1858,-6.1876,-6.1889,-6.1915,-6.1924,-6.1944,-6.1962,-6.1992,-6.2008,-6.2027,-6.2031,-6.2036,-6.2033,-6.203,-6.2031,-6.203,-6.2032,-6.2036,-6.2036,-6.2036,-6.2036,0,-6.1759,-6.1769,-6.1789,-6.1813,-6.1829,-6.1848,-6.1867,-6.1876,-6.1898,-6.1912,-6.1934,-6.1948,-6.1975,-6.1995,-6.2016,-6.2028,-6.2036,-6.2038,-6.204,-6.2036,-6.203,-6.2034,-6.2019,-6.2036,-6.2036,-6.2036,-6.2036,-6.2036,-6.1757,-6.177,-6.1795,-6.1817,-6.1834,-6.1853,-6.1867,-6.1884,-6.1903,-6.1928,-6.1938,-6.196,-6.1981,-6.2011,-6.2024,-6.204,-6.2041,-6.2045,-6.2046,-6.2046,-6.2046,-6.2029,-6.2044,-6.2044,-6.2044,-6.2044,-6.2044,0,-6.176,-6.1778,-6.1798,-6.1827,-6.1844,-6.1854,-6.1876,-6.189,-6.191,-6.193,-6.1948,-6.1974,-6.1994,-6.2014,-6.2036,-6.2046,-6.205,-6.2051,-6.205,-6.2053,-6.2044,-6.204,-6.2047,-6.2047,-6.2047,-6.2047,-6.2047,-6.2047,-6.1763,-6.1786,-6.18,-6.1831,-6.1849,-6.1872,-6.1885,-6.1902,-6.1919,-6.1948,-6.1966,-6.198,-6.2,-6.2024,-6.2044,-6.2049,-6.2056,-6.2056,-6.2063,-6.2054,-6.2053,-6.2052,-6.2049,-6.2058,-6.2058,-6.207,-6.207,-6.207]}]]